Retour au catalogue

SCION-X

ActifScienceSSO
NORAD 69900·PAYLOAD·🇮🇱 Israel
Ce nom de satellite n'a pas encore été confirmé par des sources officielles.

Lancé Jul 7, 2026 depuis Vandenberg Space Force Base

Loading…

Prochains Passages (prochaines 24 heures)

TLE

FraisSource: Space-Track

Époque: Sep 14, 2026, 12:30 UTC

1 69900U 26156AH  26257.52113761  .00001767  00000-0  18269-3 0  9992
2 69900  97.7487 156.7894 0002783 273.2956  86.7944 14.91364734 10317

Suivez SCION-X en temps réel avec AllMySat

Download on the App Store